Tracking 30306 objects as of 24-Apr-2025
HD Live streaming from Space Station
objects crossing your sky now

SL-12 DEB

Track SL-12 DEB now!
10-day predictions


NORAD ID: 29328
Int'l Code: 1989-039AK
Perigee: 749.3 km
Apogee: 18,503.1 km
Inclination: 65.3 °
Period: 335.6 minutes
Semi major axis: 15997 km
RCS: 0.0222 m2 (small)
Launch date: May 31, 1989
Source: Commonwealth of Independent States (former USSR) (CIS)
Launch site: TYURATAM MISSILE AND SPACE COMPLEX (TTMTR)

Note: This is SATELLITE DEBRIS
Your satellite tracking list
Your tracking list is empty




NASA's NSSDC Master Catalog

Two Line Element Set (TLE):
1 29328U 89039AK  25108.98366439  .00000070  00000-0  99978-3 0  9999
2 29328  65.2595 341.2733 5549031 118.8256 359.6909  4.29078174292757
Source of the keplerian elements: AFSPC